User: anonymous   Login
Location: Unspecified
(0.0000°N, 0.0000°E)
Time: 04:50:13
(UTC+00:00)
Language:

USA 207 - Orbit

View from above orbital plane
View from above orbital plane
View from above satellite
View from above satellite

Ground track
Ground track

The orbit data is extracted from the following two-line orbital elements,

1 35815U 09047A   15170.94600967 0.00000000  00000-0  00000-0 0    00
2 35815   0.0725 296.0988 0004000 106.7662 253.0657  1.00270000    00
Epoch (UTC): 19 June 2015 22:42:15
Eccentricity: 0.0004000
inclination: 0.0725°
perigee height: 35770 km
apogee height: 35803 km
right ascension of ascending node: 296.0988°
argument of perigee: 106.7662°
revolutions per day: 1.00270000
mean anomaly at epoch: 253.0657°
orbit number at epoch: 0

The dashed part of the orbit path shows where the satellite is in the earth's shadow,  

DLR